TimeEDT,TemperatureF,Dew PointF,Humidity,Sea Level PressureIn,VisibilityMPH,Wind Direction,Wind SpeedMPH,Gust SpeedMPH,PrecipitationIn,Events,Conditions,WindDirDegrees,DateUTC
12:54 AM,33.1,30.0,89,30.00,4.0,WNW,11.5,-,0.00,Snow,Light Snow,290,2013-03-26 04:54:00
1:54 AM,33.1,30.0,89,30.00,3.0,WNW,10.4,-,0.00,Snow,Light Snow,290,2013-03-26 05:54:00
2:54 AM,33.1,30.0,89,30.01,5.0,WNW,8.1,-,0.00,Snow,Light Snow,290,2013-03-26 06:54:00
3:31 AM,33.8,30.2,87,30.00,3.0,WNW,8.1,-,0.00,Snow,Light Snow,290,2013-03-26 07:31:00
3:54 AM,33.1,30.0,89,30.02,7.0,WNW,8.1,-,0.00,Snow,Light Snow,290,2013-03-26 07:54:00
4:20 AM,33.8,30.2,87,30.00,2.5,WNW,10.4,-,0.00,Snow,Light Snow,290,2013-03-26 08:20:00
4:22 AM,33.8,30.2,87,30.00,3.0,WNW,8.1,-,0.00,Snow,Light Snow,290,2013-03-26 08:22:00
4:49 AM,33.8,30.2,87,30.01,6.0,WNW,8.1,-,0.00,Snow,Light Snow,290,2013-03-26 08:49:00
4:54 AM,33.1,30.0,89,30.03,6.0,WNW,8.1,-,0.00,Snow,Light Snow,290,2013-03-26 08:54:00
5:32 AM,33.8,30.2,87,30.01,5.0,WNW,9.2,-,0.00,Snow,Light Snow,290,2013-03-26 09:32:00
5:44 AM,33.8,30.2,87,30.01,4.0,WNW,9.2,-,0.00,Snow,Light Snow,290,2013-03-26 09:44:00
5:54 AM,33.1,30.0,89,30.04,4.0,WNW,8.1,-,0.00,Snow,Light Snow,290,2013-03-26 09:54:00
6:54 AM,32.0,30.0,92,30.06,8.0,WNW,8.1,-,0.01,,Overcast,300,2013-03-26 10:54:00
7:54 AM,32.0,30.0,92,30.08,6.0,WNW,9.2,-,0.00,,Overcast,300,2013-03-26 11:54:00
8:50 AM,32.0,30.2,93,30.08,5.0,WNW,6.9,-,0.00,Snow,Light Snow,300,2013-03-26 12:50:00
8:54 AM,32.0,30.0,92,30.10,6.0,WNW,9.2,-,0.00,Snow,Light Snow,300,2013-03-26 12:54:00
9:54 AM,33.1,30.0,89,30.13,4.0,WNW,8.1,-,0.00,Snow,Light Snow,300,2013-03-26 13:54:00
10:54 AM,33.1,28.9,85,30.15,10.0,WNW,9.2,-,0.00,,Overcast,300,2013-03-26 14:54:00
11:54 AM,34.0,30.0,85,30.16,10.0,WNW,10.4,18.4,N/A,,Overcast,300,2013-03-26 15:54:00
12:54 PM,36.0,30.0,79,30.17,10.0,WNW,10.4,-,N/A,,Overcast,300,2013-03-26 16:54:00
1:54 PM,37.9,32.0,79,30.17,10.0,WNW,12.7,-,N/A,,Overcast,290,2013-03-26 17:54:00
1:56 PM,37.4,32.0,81,30.15,10.0,WNW,12.7,-,N/A,,Overcast,290,2013-03-26 17:56:00
2:47 PM,39.2,30.2,70,30.16,10.0,WNW,9.2,-,N/A,,Overcast,290,2013-03-26 18:47:00
2:54 PM,37.9,30.0,73,30.18,10.0,WNW,6.9,-,N/A,,Overcast,290,2013-03-26 18:54:00
3:45 PM,37.4,30.2,75,30.16,4.0,WNW,10.4,23.0,0.00,Snow,Light Snow,290,2013-03-26 19:45:00
3:54 PM,39.0,32.0,76,30.18,7.0,WNW,8.1,-,0.00,,Unknown,300,2013-03-26 19:54:00
4:54 PM,39.0,30.9,73,30.18,10.0,West,10.4,-,0.00,,Overcast,270,2013-03-26 20:54:00
5:54 PM,37.9,28.0,68,30.19,10.0,WNW,8.1,-,0.00,,Overcast,300,2013-03-26 21:54:00
6:54 PM,39.0,27.0,62,30.21,10.0,WNW,10.4,-,N/A,,Overcast,300,2013-03-26 22:54:00
7:54 PM,37.0,28.0,70,30.23,10.0,WNW,5.8,-,0.00,,Overcast,300,2013-03-26 23:54:00
8:54 PM,37.0,27.0,67,30.25,9.0,WNW,11.5,17.3,0.00,Snow,Light Snow,300,2013-03-27 00:54:00
9:54 PM,36.0,27.0,70,30.27,10.0,WNW,8.1,-,0.00,,Overcast,290,2013-03-27 01:54:00
10:54 PM,35.1,25.0,67,30.28,10.0,WNW,8.1,-,N/A,,Overcast,290,2013-03-27 02:54:00
11:54 PM,34.0,26.1,73,30.28,10.0,Variable,4.6,-,N/A,,Overcast,0,2013-03-27 03:54:00